Location: Fort Worth, Tx
(32.7431°N, 97.3695°W)
Time: 10:00:52
(UTC-04:00)

Courier 1B - Pass Details

Date: 29 February 2024
Orbit: 962 x 1208 km, 28.3° (Epoch: 24 April)

Event Time Altitude Azimuth Distance (km) Brightness Sun altitude
Exits shadow 06:38:51 12° 219° (SW) 2,625 9.4 -17.4°
Maximum altitude 06:39:56 12° 209° (SSW) 2,603 9.4 -17.2°
Drops below altitude 10° 06:42:16 10° 189° (S) 2,769 9.8 -16.7°
Sets 06:47:05 0° 159° (SSE) 3,776 10.8 -15.6°
